CAPE
4 2 2 3 3 5 6 7 6 5 6 3 1 0 2 1 2 1 2 2 0 0 0 2 5 10 2 3 0 0 19 0 18 1 0 2 7 16 12 9 7 15 0 2 3 1 0
4 2 2 1 1 2 3 5 6 5 4 4 2 0 0 2 0 0 1 1 0 0 0 0 13 14 12 0 0 0 0 0 0 1 10 20 21 19 17 13 15 13 15 10 9 5 12
5 3 2 1 1 0 0 1 2 3 3 3 2 2 0 0 0 0 0 0 0 0 0 1 6 22 7 0 0 0 0 0 0 7 25 13 22 35 24 29 4 20 22 28 16 1 6
5 4 3 1 1 0 0 0 0 0 0 1 1 2 0 0 0 0 0 0 0 0 0 0 5 15 6 0 0 0 0 0 3 4 4 16 31 33 27 13 12 46 45 110 5 16 6
7 5 4 3 2 1 0 0 0 0 0 0 0 1 0 0 0 0 0 0 0 0 0 0 18 14 0 0 0 0 0 0 3 7 17 31 34 11 5 62 51 31 74 83 99 111 64
8 10 9 7 5 4 2 1 1 0 0 0 1 0 0 0 0 0 0 0 0 0 0 0 6 3 0 0 0 0 0 0 6 17 17 28 10 13 26 80 40 79 42 50 76 44 81
7 9 13 13 10 6 3 2 2 1 2 1 0 1 0 0 0 0 0 0 0 0 6 0 0 0 0 0 0 0 2 5 9 15 21 26 27 16 7 11 6 25 51 46 0 10 76
8 7 3 1 7 10 5 2 1 4 8 3 0 0 0 0 0 0 0 0 0 0 0 0 0 0 0 0 0 1 0 1 8 10 12 7 17 0 7 23 27 27 26 1 0 5 5
7 11 7 4 3 10 11 6 2 3 6 4 1 0 0 0 0 0 0 0 0 0 0 0 0 0 0 0 0 0 0 1 9 8 8 4 0 0 0 4 14 14 18 2 8 0 4
3 5 12 6 14 20 17 14 8 4 10 2 2 0 0 0 0 0 0 0 0 0 0 0 0 0 0 0 0 1 0 0 1 4 8 5 0 0 0 4 11 11 0 0 2 22 33
6 13 9 4 15 14 18 19 23 12 30 25 3 0 0 0 0 0 0 0 0 0 3 0 0 0 0 0 0 4 4 11 3 0 2 0 0 2 1 2 2 2 4 12 12 31 23
7 5 4 4 18 18 16 14 20 12 18 28 13 3 0 0 0 0 0 0 0 3 1 0 0 0 0 0 1 1 9 9 8 6 5 0 0 1 0 7 1 3 20 23 33 42 36
7 5 7 11 12 12 17 8 15 22 18 28 10 0 0 0 0 0 0 0 3 7 0 0 0 0 0 0 0 1 4 5 9 5 4 0 0 0 3 9 1 3 12 93 111 98 82
5 7 6 7 9 9 10 13 17 12 7 23 5 0 0 0 0 0 0 2 2 0 0 0 0 0 0 0 0 2 6 4 1 1 7 7 0 0 0 1 1 5 10 12 37 11 9
5 4 5 5 10 11 12 16 19 13 19 23 0 0 0 0 0 0 1 7 0 0 0 0 0 0 0 0 0 0 0 0 0 1 5 17 2 0 0 0 1 0 16 0 2 1 1
8 8 7 6 5 9 17 22 18 10 17 1 0 0 0 0 0 0 7 0 0 0 0 0 0 0 0 0 0 0 9 0 1 0 0 3 11 0 0 0 0 0 0 8 14 34 6
46 44 32 23 15 10 13 17 19 3 12 0 0 0 0 0 0 0 5 0 0 0 0 0 0 0 0 2 1 9 7 0 0 0 0 2 28 0 0 0 6 10 3 0 0 0 11
35 46 50 57 43 22 29 15 20 11 1 0 0 2 0 0 0 3 3 0 0 0 0 0 0 0 0 2 6 1 4 0 0 0 0 7 27 7 0 0 0 0 0 1 5 2 0
14 17 22 47 48 45 46 24 10 11 0 0 0 0 0 0 4 3 0 0 0 0 0 0 0 0 0 0 2 15 2 0 0 0 7 10 27 23 4 0 0 0 0 1 2 0 0
7 6 12 4 7 25 42 47 36 20 0 0 0 2 0 0 0 0 0 0 0 0 0 0 0 0 0 0 0 2 1 0 0 0 0 10 26 11 14 1 1 1 0 0 5 9 0
11 6 3 5 4 4 10 51 63 63 0 0 0 2 1 17 4 2 0 0 0 0 0 0 0 0 0 0 0 0 0 1 1 0 0 27 20 9 6 2 0 1 0 0 0 0 8
11 5 2 6 1 4 4 2 2 17 2 0 0 0 0 4 0 0 0 0 0 0 0 0 0 0 0 0 0 6 7 0 6 4 4 17 19 22 14 1 1 1 0 0 0 0 0
9 4 7 6 5 3 5 2 1 11 0 1 0 0 0 2 2 3 9 0 1 0 0 0 0 0 0 0 0 0 0 0 2 10 14 28 25 16 8 11 14 12 0 0 0 0 0
17 16 13 9 7 4 4 5 2 0 15 0 0 0 2 4 1 2 3 5 6 0 2 0 0 0 0 0 0 0 1 0 2 1 4 21 17 30 15 20 11 0 0 0 0 0 0
12 13 14 10 17 15 5 6 5 1 1 13 0 0 1 7 0 1 2 2 2 0 6 12 0 2 0 0 12 7 0 1 0 1 5 17 16 21 19 21 4 0 0 0 0 0 0
26 28 33 23 12 17 17 26 24 7 2 19 25 0 2 1 14 8 24 1 13 47 28 0 0 0 0 13 27 9 8 0 0 1 1 5 15 26 32 14 14 1 0 0 0 0 0
14 17 15 12 24 36 38 38 27 22 17 27 24 33 20 1 8 25 28 14 6 5 24 0 0 0 4 15 15 20 12 0 3 3 1 4 8 5 8 16 12 0 0 0 15 1 0
15 18 18 20 22 20 22 31 45 49 36 44 31 18 30 36 4 0 0 5 13 5 32 0 1 3 11 13 26 12 7 1 0 0 0 0 2 3 9 15 2 0 1 3 2 2 0
22 29 34 39 39 38 32 34 27 26 42 42 27 0 13 36 9 0 0 0 7 25 15 3 36 1 6 14 13 22 9 3 0 8 0 1 1 9 1 3 0 0 0 2 1 6 0
CIN
0 0 0 0 0 0 0 0 0 0 0 0 0 0 0 0 0 0 0 0 0 0 0 0 0 0 0 0 0 0 0 -1 -1 -1 0 0 0 0 0 0 0 0 0 0 -1 0 0
0 0 0 0 0 0 0 0 0 0 0 0 0 0 0 0 0 0 0 0 0 0 0 0 0 -2 0 0 0 0 0 0 0 0 0 0 0 0 0 0 0 0 0 -1 0 0 -1
0 0 0 0 0 0 0 0 0 0 0 0 0 0 0 0 0 0 0 0 0 0 0 0 0 -1 0 0 0 0 0 0 0 0 0 0 0 0 0 0 0 0 0 0 -1 0 0
0 0 0 0 0 0 0 0 0 0 0 0 0 0 0 0 0 0 0 0 0 0 0 0 0 0 0 0 0 0 0 0 0 0 0 0 0 0 0 0 0 0 0 0 -78 -21 -13
0 0 0 0 0 0 0 0 0 0 0 0 0 0 0 0 0 0 0 0 0 0 0 -1 0 0 0 0 0 0 0 0 0 0 0 0 0 0 0 0 0 0 -1 0 -1 -1 -1
0 0 0 0 0 0 0 0 0 0 0 0 0 0 0 0 0 0 0 0 0 0 -1 0 0 0 0 0 0 0 0 0 0 0 0 0 -1 -3 0 0 0 0 -1 -1 0 -2 -1
0 0 0 0 0 0 0 0 0 0 0 0 0 0 0 0 0 0 0 0 0 0 0 0 0 0 0 0 0 0 0 0 0 0 0 0 0 0 0 0 0 0 0 -1 0 -25 -4
0 0 0 0 0 0 0 0 0 0 0 0 0 0 0 0 0 0 0 0 0 0 0 0 0 0 0 0 0 0 0 0 -1 0 0 0 0 0 0 -1 -1 0 0 0 0 0 -5
0 0 0 0 0 0 0 0 0 0 0 0 0 0 0 0 0 0 0 0 0 0 0 0 0 0 0 0 0 0 0 0 0 0 0 0 0 0 0 -1 0 0 0 0 0 -1 0
0 0 0 0 0 0 0 0 0 0 0 -1 0 0 0 0 0 0 0 0 0 0 0 0 0 0 0 0 0 0 0 0 -1 0 0 0 0 0 0 0 0 0 0 0 0 0 -14
0 0 0 0 0 0 0 0 0 0 0 0 0 0 0 0 0 0 0 0 0 0 0 0 0 0 0 0 0 0 0 0 0 0 -3 0 0 0 0 0 0 0 0 0 0 0 0
0 0 0 0 0 0 0 0 0 0 0 0 0 0 0 0 0 0 0 0 0 0 0 0 0 0 0 0 0 0 0 0 0 0 0 0 0 0 0 -2 0 0 0 0 0 0 -3
0 0 0 0 0 0 0 0 0 0 0 0 0 0 0 0 0 0 0 0 0 0 0 0 0 0 0 0 0 0 0 0 0 0 -1 0 0 0 0 0 0 0 0 -11 -14 -2 -3
0 0 0 0 0 0 0 0 0 0 0 0 0 0 0 0 0 0 0 0 0 0 0 0 0 0 0 0 0 0 0 0 0 0 0 0 0 0 0 0 0 -1 0 -3 -4 -13 -7
0 0 0 0 0 0 0 0 0 0 0 0 0 0 0 0 0 0 0 0 0 0 0 0 0 0 0 0 0 0 0 0 0 0 0 0 0 0 0 0 0 0 -1 0 0 -2 0
-1 -7 0 -14 0 0 -16 0 -17 -26 -12 -3 0 0 0 0 0 0 0 0 0 0 0 0 0 0 0 0 0 0 -6 0 0 0 0 0 0 0 0 0 0 0 0 -4 -1 0 0
0 0 0 -1 -5 -18 -6 -4 -15 -14 -29 0 0 0 0 0 0 0 0 0 0 0 0 0 0 0 0 0 0 -1 -4 0 0 0 0 0 0 -1 0 -1 0 -1 0 0 0 0 0
0 0 0 0 0 -4 -2 -4 -6 -7 -1 0 0 0 0 0 0 0 0 0 0 0 0 0 0 0 0 0 0 0 -7 -2 0 0 0 0 0 0 0 0 0 0 0 0 0 -1 0
0 0 -3 -1 -1 -3 -4 -10 -1 -5 0 0 0 0 0 0 0 0 0 0 0 0 0 0 0 0 0 0 0 0 0 0 0 0 -8 -1 0 0 -1 0 0 0 0 0 0 0 0
0 0 0 -23 -10 -16 -7 -1 -2 -2 0 0 0 0 0 0 0 0 0 0 0 0 0 0 0 0 0 0 0 -1 0 0 0 0 0 0 0 0 0 0 0 0 0 0 0 0 0
0 0 0 0 0 0 -24 0 0 0 0 0 0 0 0 0 0 0 0 0 0 0 0 0 0 0 0 0 0 0 0 0 0 0 0 0 0 0 0 -1 0 0 0 0 0 0 0
0 0 0 0 0 0 0 0 0 -16 0 0 0 0 0 0 0 0 0 0 0 0 0 0 0 0 0 0 0 -4 -2 0 0 -1 0 0 0 0 0 0 0 0 0 0 0 0 0
0 0 0 0 0 0 0 0 0 -8 0 0 0 0 0 0 0 0 0 0 0 0 0 0 0 0 0 0 0 0 0 0 0 -1 0 0 0 0 0 0 0 0 0 0 0 0 0
-1 -1 -1 0 0 0 0 0 0 0 -3 0 0 0 0 0 0 0 0 0 0 -5 0 0 0 0 0 0 0 0 -1 0 0 0 0 0 0 0 0 0 0 0 0 0 0 0 0
-1 -1 -1 0 -2 -1 0 0 0 0 0 0 0 0 0 -2 -4 0 0 0 0 -11 0 0 0 0 0 0 0 0 0 0 0 0 0 -2 0 0 0 0 -1 0 0 0 0 0 0
0 0 0 0 -1 -1 -1 -3 -2 -2 0 0 0 0 0 -1 -2 -2 0 0 0 0 0 0 0 0 0 0 0 0 0 -8 0 0 0 0 0 0 0 0 0 0 0 0 0 0 0
0 0 0 0 0 0 -1 -2 -4 -2 -1 0 0 0 -1 -1 -1 -1 0 -3 0 -1 -1 0 0 0 0 0 0 0 0 0 0 0 0 0 0 0 0 0 0 0 0 0 0 0 0
0 -1 -1 -3 -2 -3 -2 0 -1 -1 -1 -1 0 -5 0 0 -1 0 0 -1 0 0 0 0 0 0 0 0 0 0 0 0 0 0 0 0 0 0 0 0 -1 0 -3 -2 0 -1 0
-1 0 0 0 -1 -1 -2 -1 0 -1 -2 -2 0 -1 -5 0 -1 0 0 0 -1 -4 -2 0 -1 0 0 0 0 0 0 0 0 0 0 0 0 0 0 0 0 0 0 0 0 0 0
Wind_Speed
12 13 13 13 14 14 14 15 14 14 12 10 10 11 10 9 9 8 8 7 6 5 6 6 6 3 5 7 12 8 8 6 7 6 8 9 11 12 17 14 15 21 26 25 26 23 21
13 13 13 13 13 14 14 15 15 15 14 12 9 9 10 10 10 9 8 8 7 7 7 7 7 5 8 12 5 6 8 7 8 8 10 9 9 11 15 19 18 17 22 23 24 27 25
13 13 13 13 13 13 14 14 14 15 15 15 11 8 9 10 10 10 9 9 9 8 7 8 8 8 10 15 2 6 8 9 8 9 13 12 12 12 7 13 19 20 23 24 26 27 26
11 11 12 13 13 14 14 14 14 15 15 17 13 9 8 10 9 9 9 9 9 9 7 6 6 6 7 2 4 7 8 9 11 11 13 12 13 14 14 8 11 19 22 21 23 26 27
11 11 11 12 13 13 13 13 14 14 15 16 14 10 8 10 9 9 9 9 9 9 6 3 4 5 8 6 6 5 5 8 8 10 11 7 5 3 1 7 12 15 18 24 26 21 21
11 11 11 11 12 13 13 14 15 15 15 15 15 12 11 10 8 8 10 8 3 5 4 4 5 6 8 4 4 3 4 6 6 5 7 6 2 4 5 7 15 15 17 21 23 21 23
11 11 11 12 12 12 13 14 15 15 16 16 17 14 12 12 7 7 8 4 5 6 10 10 6 5 3 3 3 6 2 5 6 8 9 11 9 14 14 21 22 21 24 24 22 24 17
9 10 9 10 11 13 13 13 14 15 16 17 18 17 12 9 6 5 6 5 5 4 11 17 16 14 10 3 5 6 5 4 6 10 10 8 18 21 18 20 19 22 24 28 27 24 13
11 11 10 11 11 13 13 13 14 15 15 16 17 16 11 9 7 4 4 5 1 4 7 3 5 5 3 8 5 7 9 4 5 12 14 17 14 4 10 17 20 21 22 25 24 19 16
11 12 11 13 13 13 13 13 14 15 14 13 15 15 10 9 6 2 2 2 2 4 5 5 4 3 4 3 5 5 8 5 5 8 14 17 15 13 13 16 17 19 24 25 22 16 5
13 14 14 14 15 12 13 13 14 15 14 13 14 15 8 3 7 3 3 1 2 4 6 4 4 3 3 6 2 9 7 7 10 11 6 12 13 12 12 12 9 14 14 15 18 11 10
14 12 13 15 15 13 13 14 14 13 13 13 14 15 8 4 3 4 2 1 4 3 7 4 4 3 4 7 4 4 6 7 8 10 14 28 24 21 11 7 8 7 8 13 15 4 6
15 14 15 15 14 13 13 14 14 13 14 14 15 13 5 2 3 3 2 3 3 6 3 1 2 4 5 5 5 8 6 6 5 5 3 17 13 13 11 14 8 3 3 3 6 5 1
17 16 16 16 15 13 13 14 14 12 13 13 14 7 2 3 3 2 4 2 5 2 3 2 2 7 6 4 6 6 5 7 13 11 9 7 6 4 2 7 9 12 5 5 6 5 4
18 18 18 17 16 15 14 14 13 12 12 11 13 1 1 4 3 3 4 4 4 4 3 8 10 5 5 3 3 5 8 4 1 8 5 6 6 5 9 10 8 5 4 4 6 6 4
18 19 18 18 17 15 14 14 11 10 10 10 6 3 2 5 4 5 2 5 4 4 5 3 5 2 4 2 3 2 4 3 1 1 2 5 10 8 5 7 12 10 8 3 3 6 5
16 16 18 18 17 15 14 12 11 10 8 5 3 4 4 4 3 3 4 5 4 3 3 3 5 6 5 4 2 3 5 2 3 3 5 5 6 6 7 5 7 4 5 5 3 3 5
13 13 14 15 14 14 14 14 11 9 2 4 2 4 3 3 3 1 4 3 4 4 1 3 4 5 5 6 5 5 5 3 3 0 4 3 6 9 17 13 3 8 12 9 4 3 2
17 18 16 12 12 12 15 14 12 10 7 3 1 3 2 3 3 3 5 5 4 3 4 3 4 7 1 4 7 8 5 2 2 1 2 3 5 8 5 5 4 7 6 10 7 5 6
17 18 16 17 19 15 12 11 11 13 11 3 2 2 2 3 1 4 4 7 4 6 5 4 5 4 5 7 11 7 5 2 1 5 4 3 5 12 13 9 9 9 12 8 11 8 7
15 14 15 16 16 17 17 10 11 10 16 4 1 4 2 3 5 4 1 2 5 4 5 3 4 10 7 6 11 13 13 7 6 1 4 4 8 15 19 21 20 19 18 17 14 14 12
15 14 15 16 18 16 15 17 17 9 15 2 4 3 2 2 2 4 5 5 4 5 5 5 7 10 5 9 10 13 13 12 8 3 4 3 5 10 15 19 21 24 23 20 22 20 19
12 13 14 14 14 15 14 15 15 9 10 2 2 2 2 4 4 4 5 7 7 5 7 13 10 10 11 14 13 17 16 13 13 9 5 5 4 4 11 10 10 13 21 23 21 20 18
11 11 11 10 10 13 12 12 12 12 5 1 1 3 3 5 7 7 5 8 15 15 12 9 8 10 5 5 9 12 13 16 17 20 14 9 6 4 7 7 11 5 6 8 13 16 18
11 11 12 11 11 11 11 11 11 11 9 2 2 3 3 5 5 8 12 12 12 13 10 7 15 14 4 5 4 6 5 4 8 10 12 11 7 4 5 8 15 19 6 5 4 4 9
15 15 14 12 11 11 12 11 8 8 9 5 2 1 2 3 8 4 4 2 8 6 3 5 0 4 4 3 4 5 6 4 4 3 2 5 7 7 5 5 4 5 5 6 4 3 9
15 16 15 15 15 15 15 14 13 10 10 6 3 2 3 5 8 11 8 7 3 1 5 3 2 3 4 4 6 7 7 0 5 5 5 3 4 12 11 6 6 7 11 6 5 4 9
15 15 15 15 14 13 14 15 15 13 10 4 4 5 3 3 8 8 10 10 8 5 9 1 2 5 4 6 4 4 5 6 4 2 3 6 4 5 5 5 7 12 2 4 5 7 10
14 15 15 16 15 14 14 13 13 14 12 5 5 2 3 4 6 11 14 17 18 11 4 4 4 3 3 4 3 3 4 3 4 6 1 5 4 1 5 3 6 5 5 1 4 4 3
Wind_Direction
24 23 21 19 15 13 13 13 12 6 354 337 333 334 323 313 304 295 289 289 287 275 276 287 282 269 235 245 256 129 172 158 182 218 249 264 269 274 262 266 274 259 265 266 268 269 266
17 15 15 15 15 10 9 9 6 4 1 346 323 326 326 310 301 290 280 276 267 262 267 269 266 190 247 257 99 174 190 193 236 231 260 253 260 278 286 266 261 266 275 271 259 260 260
11 11 11 8 9 8 7 6 4 359 357 353 330 312 323 311 296 286 272 260 257 255 252 266 258 220 259 255 170 187 201 227 252 256 267 268 265 263 279 277 261 272 268 269 255 255 256
5 6 3 3 3 2 3 4 358 357 355 353 341 317 315 315 296 282 276 268 259 258 254 292 230 237 256 110 247 217 237 243 251 254 255 269 279 270 260 277 286 276 268 262 260 245 243
355 359 359 356 356 357 355 357 351 352 354 354 351 326 314 320 303 291 281 271 263 251 243 258 211 229 263 123 217 218 226 248 278 260 256 275 289 240 252 236 266 245 260 262 266 243 240
345 347 350 350 349 349 348 349 346 345 349 353 358 337 318 320 304 303 289 274 266 233 218 230 247 251 218 224 148 197 210 233 246 265 233 206 187 229 224 215 252 267 253 254 263 265 252
338 339 343 344 343 342 342 342 338 340 346 350 350 341 323 322 303 316 295 226 215 203 218 216 203 255 161 122 198 194 198 217 228 235 238 187 229 233 233 235 246 267 277 274 271 273 302
326 325 332 336 336 336 331 332 334 339 344 346 345 346 331 335 326 315 279 270 3 348 291 227 249 258 268 265 255 192 185 209 222 241 220 241 248 252 249 258 255 263 271 265 272 278 235
316 317 326 327 324 322 325 324 330 334 340 344 346 348 336 326 323 257 286 318 348 295 267 196 203 240 198 204 248 191 194 174 261 260 246 244 255 225 252 251 259 248 251 264 272 293 269
310 312 317 317 317 320 321 322 329 331 333 339 343 347 334 324 267 358 303 54 305 290 280 175 193 137 167 233 260 162 210 198 217 266 265 267 274 264 258 255 240 247 242 247 265 270 302
304 305 312 309 309 310 311 319 320 328 329 333 340 342 328 332 320 281 25 322 265 245 292 121 145 95 152 227 19 196 188 177 243 261 303 264 290 282 253 246 192 239 246 257 250 246 287
287 287 289 294 298 302 307 312 312 320 324 328 335 337 319 219 238 25 301 239 247 235 247 144 149 197 205 197 219 122 207 233 275 282 246 258 268 286 255 268 181 265 248 242 253 247 238
275 276 281 285 289 297 303 305 310 313 325 328 332 332 291 308 354 338 257 221 273 241 86 210 231 189 224 218 216 199 207 220 243 284 301 306 279 239 256 279 176 169 268 204 213 210 324
266 271 274 278 280 286 290 299 306 311 319 322 331 312 75 358 313 240 221 214 228 180 339 36 262 245 241 173 217 215 246 262 226 244 290 292 316 233 76 290 308 302 303 356 320 333 13
260 262 265 270 277 278 281 288 298 309 319 329 315 294 254 17 317 250 219 233 274 354 330 331 298 260 233 169 252 240 224 273 107 201 260 311 269 306 276 293 293 353 309 334 279 237 271
260 256 257 261 263 266 272 285 286 301 317 344 316 289 41 335 309 247 232 262 292 348 323 290 287 0 302 59 267 218 282 114 116 213 234 314 284 289 305 284 242 257 334 287 300 325 317
285 269 262 257 256 255 259 269 272 289 315 345 281 280 58 332 285 237 245 266 305 34 330 298 308 297 288 296 248 269 274 164 163 160 197 270 255 283 303 229 309 227 253 235 284 276 323
343 321 290 274 264 249 247 253 259 271 307 269 292 278 39 303 250 250 261 300 345 295 234 269 277 266 260 301 276 256 262 219 127 225 284 350 298 282 269 284 316 283 282 290 285 26 311
9 14 5 331 298 255 252 245 234 247 188 281 257 276 128 259 247 222 240 265 255 252 246 221 264 230 269 272 288 266 275 72 193 251 267 12 261 299 264 147 190 264 275 258 294 284 273
3 3 6 18 15 2 282 255 240 239 173 107 136 267 187 207 268 279 277 265 247 208 260 247 276 262 266 266 242 277 271 281 263 247 165 143 256 258 275 305 306 305 325 290 268 264 250
1 359 3 11 13 12 6 311 259 235 168 134 204 231 120 221 233 210 309 296 275 268 230 219 259 238 259 279 288 256 272 280 265 244 232 236 264 267 271 276 280 278 275 274 270 266 260
3 0 359 2 8 3 1 4 18 324 165 142 161 204 80 292 281 202 194 223 252 268 217 227 234 265 264 242 249 298 308 291 281 238 245 222 271 295 281 277 269 268 263 256 255 254 259
358 359 1 357 357 359 357 2 11 43 153 236 86 37 127 175 174 211 202 228 247 269 245 259 266 282 264 257 273 275 280 264 256 251 242 236 256 260 276 298 312 273 247 244 244 241 243
350 348 348 351 354 355 347 356 1 6 213 278 143 141 161 250 194 217 218 235 270 273 266 264 287 257 305 319 284 264 254 257 260 257 236 245 229 238 278 300 254 319 339 326 250 266 259
348 344 344 344 337 336 341 347 349 344 344 259 162 184 185 243 222 220 241 250 260 267 255 257 274 271 328 289 273 274 236 254 256 243 234 223 246 262 260 255 297 306 29 12 338 64 15
347 342 333 326 330 341 338 324 312 330 333 313 251 221 230 286 227 278 283 224 285 257 217 230 347 330 207 253 233 248 268 343 268 189 131 244 231 255 217 250 271 62 24 357 321 227 28
342 341 337 329 336 331 323 319 320 308 307 314 310 230 302 285 297 282 273 292 174 284 269 253 227 197 220 220 245 247 248 182 253 246 174 181 203 227 235 254 276 16 326 319 263 49 6
334 333 333 322 323 315 313 319 323 316 302 269 276 201 244 251 284 262 261 271 265 239 258 119 267 194 194 233 244 212 240 201 268 285 204 207 211 199 207 232 248 2 74 339 45 8 3
321 328 330 323 321 322 313 309 304 301 301 280 265 187 219 247 269 291 276 279 269 254 259 184 289 159 235 229 237 297 231 213 264 273 217 244 233 291 222 243 6 11 26 83 324 223 282